Погода в Семеновке

Россия / Саратовская область     51°10′51″N   47°36′22″E
темп.,
°C
ветер,
м/с
пор.,
м/с
влажн.,
%
обл.,
%
осадки,
мм/ч
давл.,
гПа
погр.,
м
9 мая, вс
вс901:00+15юв3447100 0.0 101351
04:00+15юв5105783 0.1 1012198
07:00+16юв61262100 0.0 1012367
10:00+20ю7114594 0.0 1012732
13:00+23ю9123398 0.0 10111716
16:00+22ю7931100 0.0 10111721
19:00+20ююв1248100 0.0 101113
22:00+18вюв3852100 0.0 1011167
10 мая, пн
пн1001:00+17ююв3656100 0.0 1011115
04:00+16вюв4755100 0.0 1012116
07:00+17в61354100 0.0 1012297
10:00+21вюв81439100 0.0 1012783
13:00+24юв81231100 0.0 10131702
16:00+25в8123599 0.0 10132336
19:00+23в81538100 0.0 1014685
22:00+16ююз2477100 0.4 1017125
11 мая, вт
вт1101:00+18св81463100 0.0 1016381
04:00+13ююз2379100 0.0 1019147
07:00+12юз447987 0.0 1021334
10:00+14ююз226749 0.0 1023578
13:00+21вюв3650100 0.0 10231548
16:00+16ююз6976100 0.9 1024581
19:00+14зюз1289100 3.4 1024192
22:00+15св61491100 6.3 1023459
12 мая, ср
ср1201:00+16всв71682100 0.0 1022525
04:00+17вюв81861100 0.0 1022607
07:00+17вюв7175945 0.0 1022520
10:00+19вюв6115135 0.0 1023629
13:00+22вюв794598 0.0 10241078
16:00+22в81048100 0.0 10231105
19:00+21в6114882 0.0 1023580
22:00+18в7154994 0.0 1022424
13 мая, чт
чт1301:00+17в71646100 0.0 1022391
04:00+17юв71646100 0.1 1022540
07:00+15в61460100 0.9 1022311
10:00+16вюв61358100 0.9 1022371
13:00+25вюв894037 0.1 10221095
16:00+26юв810376 0.1 10221819
19:00+23вюв612462 0.1 1022467
22:00+19вюв615570 0.2 1022344